Time,TemperatureF,DewpointF,PressureIn,WindDirection,WindDirectionDegrees,WindSpeedMPH,WindSpeedGustMPH,Humidity,HourlyPrecipIn,Conditions,Clouds,dailyrainin,SoftwareType,DateUTC
2013-06-25 00:00:00,62.3,-99.9,29.85,SE,125,0.0,0.0,-999,-99.99,,,-99.99,,2013-06-25 07:00:00,
2013-06-25 00:05:00,62.3,-99.9,29.85,ESE,121,0.0,12.6,-999,-99.99,,,-99.99,,2013-06-25 07:05:00,
2013-06-25 00:10:00,62.3,-99.9,29.85,SE,143,0.0,15.3,-999,-99.99,,,-99.99,,2013-06-25 07:10:00,
2013-06-25 00:15:00,62.2,-99.9,29.85,ENE,69,0.0,13.7,-999,-99.99,,,-99.99,,2013-06-25 07:15:00,
2013-06-25 00:20:00,62.2,-99.9,29.86,SE,128,0.0,0.0,-999,-99.99,,,-99.99,,2013-06-25 07:20:00,
2013-06-25 00:25:00,62.3,-99.9,29.85,East,90,0.0,8.9,-999,-99.99,,,-99.99,,2013-06-25 07:25:00,
2013-06-25 00:30:00,62.3,-99.9,29.85,East,93,7.2,16.6,-999,-99.99,,,-99.99,,2013-06-25 07:30:00,
2013-06-25 00:35:00,62.3,-99.9,29.85,SSE,166,0.0,0.0,-999,-99.99,,,-99.99,,2013-06-25 07:35:00,
2013-06-25 00:40:00,62.3,-99.9,29.85,East,101,0.0,0.0,-999,-99.99,,,-99.99,,2013-06-25 07:40:00,
2013-06-25 00:45:00,62.2,-99.9,29.85,ESE,111,0.0,8.9,-999,-99.99,,,-99.99,,2013-06-25 07:45:00,
2013-06-25 00:50:00,62.3,-99.9,29.85,ESE,111,0.0,0.0,-999,-99.99,,,-99.99,,2013-06-25 07:50:00,
2013-06-25 00:55:00,62.3,-99.9,29.85,ESE,105,0.0,0.0,-999,-99.99,,,-99.99,,2013-06-25 07:55:00,
2013-06-25 01:00:00,62.3,-99.9,29.85,ESE,105,0.0,0.0,-999,-99.99,,,-99.99,,2013-06-25 08:00:00,
2013-06-25 01:05:00,62.4,-99.9,29.85,ESE,105,0.0,0.0,-999,-99.99,,,-99.99,,2013-06-25 08:05:00,
2013-06-25 01:10:00,62.4,-99.9,29.85,ESE,105,0.0,0.0,-999,-99.99,,,-99.99,,2013-06-25 08:10:00,
2013-06-25 01:15:00,62.4,-99.9,29.85,ESE,105,0.0,0.0,-999,-99.99,,,-99.99,,2013-06-25 08:15:00,
2013-06-25 01:20:00,62.4,-99.9,29.85,ESE,105,0.0,0.0,-999,-99.99,,,-99.99,,2013-06-25 08:20:00,
2013-06-25 01:25:00,62.5,-99.9,29.85,East,90,0.0,8.4,-999,-99.99,,,-99.99,,2013-06-25 08:25:00,
2013-06-25 01:30:00,62.4,-99.9,29.85,SE,127,0.0,15.6,-999,-99.99,,,-99.99,,2013-06-25 08:30:00,
2013-06-25 01:35:00,62.4,-99.9,29.85,SSE,152,0.0,0.0,-999,-99.99,,,-99.99,,2013-06-25 08:35:00,
2013-06-25 01:40:00,62.4,-99.9,29.85,East,88,0.0,0.0,-999,-99.99,,,-99.99,,2013-06-25 08:40:00,
2013-06-25 01:45:00,62.4,-99.9,29.85,ESE,107,8.0,13.5,-999,-99.99,,,-99.99,,2013-06-25 08:45:00,
2013-06-25 01:50:00,62.3,-99.9,29.85,ESE,103,0.0,0.0,-999,-99.99,,,-99.99,,2013-06-25 08:50:00,
2013-06-25 01:55:00,62.4,-99.9,29.85,ESE,115,0.0,0.0,-999,-99.99,,,-99.99,,2013-06-25 08:55:00,
2013-06-25 02:00:00,62.4,-99.9,29.85,ESE,118,0.0,0.0,-999,-99.99,,,-99.99,,2013-06-25 09:00:00,
2013-06-25 02:05:00,62.3,-99.9,29.85,East,101,0.0,6.8,-999,-99.99,,,-99.99,,2013-06-25 09:05:00,
2013-06-25 02:10:00,62.3,-99.9,29.85,East,87,0.0,0.0,-999,-99.99,,,-99.99,,2013-06-25 09:10:00,
2013-06-25 02:15:00,62.3,-99.9,29.85,NE,50,0.0,0.0,-999,-99.99,,,-99.99,,2013-06-25 09:15:00,
2013-06-25 02:25:00,62.2,-99.9,29.85,ENE,70,0.0,0.0,-999,-99.99,,,-99.99,,2013-06-25 09:25:00,
2013-06-25 02:30:00,62.1,-99.9,29.85,East,84,0.0,0.0,-999,-99.99,,,-99.99,,2013-06-25 09:30:00,
2013-06-25 02:35:00,62.1,-99.9,29.85,East,95,0.0,13.4,-999,-99.99,,,-99.99,,2013-06-25 09:35:00,
2013-06-25 02:40:00,62.1,-99.9,29.84,East,95,0.0,0.0,-999,-99.99,,,-99.99,,2013-06-25 09:40:00,
2013-06-25 02:45:00,62.2,-99.9,29.85,East,95,0.0,0.0,-999,-99.99,,,-99.99,,2013-06-25 09:45:00,
2013-06-25 02:50:00,62.2,-99.9,29.85,East,95,0.0,0.0,-999,-99.99,,,-99.99,,2013-06-25 09:50:00,
2013-06-25 02:55:00,62.2,-99.9,29.85,East,95,0.0,0.0,-999,-99.99,,,-99.99,,2013-06-25 09:55:00,
2013-06-25 03:00:00,62.1,-99.9,29.85,SE,134,0.0,5.1,-999,-99.99,,,-99.99,,2013-06-25 10:00:00,
2013-06-25 03:05:00,62.1,-99.9,29.84,SE,124,0.0,0.0,-999,-99.99,,,-99.99,,2013-06-25 10:05:00,
2013-06-25 03:10:00,62.1,-99.9,29.84,SE,141,0.0,0.0,-999,-99.99,,,-99.99,,2013-06-25 10:10:00,
2013-06-25 03:15:00,62.1,-99.9,29.84,SE,141,0.0,0.0,-999,-99.99,,,-99.99,,2013-06-25 10:15:00,
2013-06-25 03:20:00,62.1,-99.9,29.84,SE,141,0.0,6.8,-999,-99.99,,,-99.99,,2013-06-25 10:20:00,
2013-06-25 03:25:00,62.0,-99.9,29.84,East,91,0.0,0.0,-999,-99.99,,,-99.99,,2013-06-25 10:25:00,
2013-06-25 03:30:00,61.9,-99.9,29.84,East,98,13.5,19.5,-999,-99.99,,,-99.99,,2013-06-25 10:30:00,
2013-06-25 03:35:00,61.9,-99.9,29.84,East,97,0.0,10.8,-999,-99.99,,,-99.99,,2013-06-25 10:35:00,
2013-06-25 03:40:00,61.9,-99.9,29.83,NE,56,8.9,14.5,-999,-99.99,,,-99.99,,2013-06-25 10:40:00,
2013-06-25 03:45:00,62.0,-99.9,29.83,SE,125,0.0,6.8,-999,-99.99,,,-99.99,,2013-06-25 10:45:00,
2013-06-25 03:50:00,62.0,-99.9,29.83,SE,125,0.0,0.0,-999,-99.99,,,-99.99,,2013-06-25 10:50:00,
2013-06-25 03:55:00,62.1,-99.9,29.83,NE,53,0.0,0.0,-999,-99.99,,,-99.99,,2013-06-25 10:55:00,
2013-06-25 04:00:00,62.0,-99.9,29.83,East,94,0.0,0.0,-999,-99.99,,,-99.99,,2013-06-25 11:00:00,
2013-06-25 04:05:00,62.0,-99.9,29.83,East,98,0.0,0.0,-999,-99.99,,,-99.99,,2013-06-25 11:05:00,
2013-06-25 04:10:00,62.1,-99.9,29.83,East,98,0.0,0.0,-999,-99.99,,,-99.99,,2013-06-25 11:10:00,
2013-06-25 04:15:00,62.0,-99.9,29.83,SE,129,17.9,17.9,-999,-99.99,,,-99.99,,2013-06-25 11:15:00,
2013-06-25 04:20:00,62.0,-99.9,29.83,ESE,111,11.3,11.3,-999,-99.99,,,-99.99,,2013-06-25 11:20:00,
2013-06-25 04:25:00,62.1,-99.9,29.83,ESE,108,0.0,0.0,-999,-99.99,,,-99.99,,2013-06-25 11:25:00,
2013-06-25 04:30:00,62.0,-99.9,29.83,ESE,104,0.0,15.8,-999,-99.99,,,-99.99,,2013-06-25 11:30:00,
2013-06-25 04:35:00,62.1,-99.9,29.83,ENE,60,0.0,0.0,-999,-99.99,,,-99.99,,2013-06-25 11:35:00,
2013-06-25 04:40:00,62.0,-99.9,29.83,SE,129,14.0,14.0,-999,-99.99,,,-99.99,,2013-06-25 11:40:00,
2013-06-25 04:45:00,61.9,-99.9,29.83,SE,141,0.0,15.6,-999,-99.99,,,-99.99,,2013-06-25 11:45:00,
2013-06-25 04:50:00,61.9,-99.9,29.83,ESE,118,0.0,0.0,-999,-99.99,,,-99.99,,2013-06-25 11:50:00,
2013-06-25 04:55:00,61.8,-99.9,29.83,East,90,0.0,12.4,-999,-99.99,,,-99.99,,2013-06-25 11:55:00,
2013-06-25 05:00:00,61.8,-99.9,29.83,NE,43,0.0,22.5,-999,-99.99,,,-99.99,,2013-06-25 12:00:00,
2013-06-25 05:05:00,62.0,-99.9,29.83,SE,128,0.0,0.0,-999,-99.99,,,-99.99,,2013-06-25 12:05:00,
2013-06-25 05:10:00,62.0,-99.9,29.83,ESE,107,0.0,16.6,-999,-99.99,,,-99.99,,2013-06-25 12:10:00,
2013-06-25 05:15:00,61.9,-99.9,29.83,SE,124,11.3,11.3,-999,-99.99,,,-99.99,,2013-06-25 12:15:00,
2013-06-25 05:20:00,61.9,-99.9,29.83,ENE,71,8.9,13.7,-999,-99.99,,,-99.99,,2013-06-25 12:20:00,
2013-06-25 05:25:00,61.9,-99.9,29.83,East,101,0.0,11.6,-999,-99.99,,,-99.99,,2013-06-25 12:25:00,
2013-06-25 05:30:00,61.9,-99.9,29.83,SE,135,0.0,7.7,-999,-99.99,,,-99.99,,2013-06-25 12:30:00,
2013-06-25 05:35:00,62.0,-99.9,29.84,SSE,160,13.5,15.8,-999,-99.99,,,-99.99,,2013-06-25 12:35:00,
2013-06-25 05:40:00,61.9,-99.9,29.84,East,83,0.0,22.2,-999,-99.99,,,-99.99,,2013-06-25 12:40:00,
2013-06-25 05:45:00,61.9,-99.9,29.84,SE,128,0.0,3.1,-999,-99.99,,,-99.99,,2013-06-25 12:45:00,
2013-06-25 05:50:00,61.8,-99.9,29.84,ESE,105,0.0,20.9,-999,-99.99,,,-99.99,,2013-06-25 12:50:00,
2013-06-25 05:55:00,61.8,-99.9,29.84,SE,143,8.2,19.6,-999,-99.99,,,-99.99,,2013-06-25 12:55:00,
2013-06-25 06:00:00,61.7,-99.9,29.84,East,87,0.0,16.9,-999,-99.99,,,-99.99,,2013-06-25 13:00:00,
2013-06-25 06:05:00,61.8,-99.9,29.85,SSE,158,0.0,12.6,-999,-99.99,,,-99.99,,2013-06-25 13:05:00,
2013-06-25 06:10:00,61.9,-99.9,29.84,East,80,0.0,13.2,-999,-99.99,,,-99.99,,2013-06-25 13:10:00,
2013-06-25 06:15:00,61.9,-99.9,29.85,East,100,9.0,14.6,-999,-99.99,,,-99.99,,2013-06-25 13:15:00,
2013-06-25 06:20:00,61.8,-99.9,29.85,SE,135,13.5,13.5,-999,-99.99,,,-99.99,,2013-06-25 13:20:00,
2013-06-25 06:25:00,61.9,-99.9,29.85,SE,141,0.0,0.0,-999,-99.99,,,-99.99,,2013-06-25 13:25:00,
2013-06-25 06:30:00,61.8,-99.9,29.85,ESE,114,12.7,12.7,-999,-99.99,,,-99.99,,2013-06-25 13:30:00,
2013-06-25 06:35:00,61.9,-99.9,29.85,East,80,0.0,0.0,-999,-99.99,,,-99.99,,2013-06-25 13:35:00,
2013-06-25 06:40:00,62.0,-99.9,29.85,East,87,0.0,11.1,-999,-99.99,,,-99.99,,2013-06-25 13:40:00,
2013-06-25 06:45:00,62.1,-99.9,29.85,East,100,0.0,0.0,-999,-99.99,,,-99.99,,2013-06-25 13:45:00,
2013-06-25 06:50:00,62.1,-99.9,29.85,ENE,76,0.0,4.7,-999,-99.99,,,-99.99,,2013-06-25 13:50:00,
2013-06-25 06:55:00,62.1,-99.9,29.86,ENE,76,0.0,0.0,-999,-99.99,,,-99.99,,2013-06-25 13:55:00,
2013-06-25 07:00:00,62.2,-99.9,29.85,SE,136,0.0,0.0,-999,-99.99,,,-99.99,,2013-06-25 14:00:00,
2013-06-25 07:05:00,62.1,-99.9,29.86,SE,136,0.0,0.0,-999,-99.99,,,-99.99,,2013-06-25 14:05:00,
2013-06-25 07:10:00,62.2,-99.9,29.86,East,90,5.6,5.6,-999,-99.99,,,-99.99,,2013-06-25 14:10:00,
2013-06-25 07:20:00,62.2,-99.9,29.86,ESE,111,0.0,12.2,-999,-99.99,,,-99.99,,2013-06-25 14:20:00,
2013-06-25 07:25:00,62.2,-99.9,29.86,ESE,111,0.0,8.7,-999,-99.99,,,-99.99,,2013-06-25 14:25:00,
2013-06-25 07:30:00,62.2,-99.9,29.86,East,83,0.0,10.6,-999,-99.99,,,-99.99,,2013-06-25 14:30:00,
2013-06-25 07:35:00,62.2,-99.9,29.86,East,95,0.0,0.0,-999,-99.99,,,-99.99,,2013-06-25 14:35:00,
2013-06-25 07:40:00,62.2,-99.9,29.86,ESE,115,0.0,8.5,-999,-99.99,,,-99.99,,2013-06-25 14:40:00,
2013-06-25 07:45:00,62.3,-99.9,29.85,SE,138,0.0,0.0,-999,-99.99,,,-99.99,,2013-06-25 14:45:00,
2013-06-25 07:50:00,62.3,-99.9,29.85,SE,138,0.0,15.0,-999,-99.99,,,-99.99,,2013-06-25 14:50:00,
2013-06-25 07:55:00,62.4,-99.9,29.85,East,86,0.0,14.6,-999,-99.99,,,-99.99,,2013-06-25 14:55:00,
2013-06-25 08:00:00,62.5,-99.9,29.86,East,88,0.0,0.0,-999,-99.99,,,-99.99,,2013-06-25 15:00:00,
2013-06-25 08:05:00,62.5,-99.9,29.86,East,88,0.0,0.0,-999,-99.99,,,-99.99,,2013-06-25 15:05:00,
2013-06-25 08:10:00,62.7,-99.9,29.86,ESE,107,0.0,0.0,-999,-99.99,,,-99.99,,2013-06-25 15:10:00,
2013-06-25 08:15:00,62.8,-99.9,29.86,ESE,107,0.0,0.0,-999,-99.99,,,-99.99,,2013-06-25 15:15:00,
2013-06-25 08:20:00,62.8,-99.9,29.86,ESE,117,0.0,0.0,-999,-99.99,,,-99.99,,2013-06-25 15:20:00,
2013-06-25 08:25:00,63.0,-99.9,29.86,East,83,0.0,5.0,-999,-99.99,,,-99.99,,2013-06-25 15:25:00,
2013-06-25 08:30:00,63.3,-99.9,29.86,SE,138,18.7,21.4,-999,-99.99,,,-99.99,,2013-06-25 15:30:00,
2013-06-25 08:35:00,63.3,-99.9,29.87,East,90,0.0,0.0,-999,-99.99,,,-99.99,,2013-06-25 15:35:00,
2013-06-25 08:40:00,63.4,-99.9,29.87,ESE,108,0.0,12.9,-999,-99.99,,,-99.99,,2013-06-25 15:40:00,
2013-06-25 08:45:00,63.4,-99.9,29.87,East,98,0.0,12.6,-999,-99.99,,,-99.99,,2013-06-25 15:45:00,
2013-06-25 08:50:00,63.4,-99.9,29.87,East,88,7.7,11.7,-999,-99.99,,,-99.99,,2013-06-25 15:50:00,
2013-06-25 08:55:00,63.5,-99.9,29.88,ESE,119,0.0,0.0,-999,-99.99,,,-99.99,,2013-06-25 15:55:00,
2013-06-25 09:00:00,63.7,-99.9,29.88,East,91,0.0,0.0,-999,-99.99,,,-99.99,,2013-06-25 16:00:00,
2013-06-25 09:05:00,63.7,-99.9,29.88,ESE,110,6.9,9.0,-999,-99.99,,,-99.99,,2013-06-25 16:05:00,
2013-06-25 09:10:00,63.8,-99.9,29.88,ESE,110,0.0,0.0,-999,-99.99,,,-99.99,,2013-06-25 16:10:00,
2013-06-25 09:15:00,63.9,-99.9,29.88,SE,129,16.1,16.1,-999,-99.99,,,-99.99,,2013-06-25 16:15:00,
2013-06-25 09:20:00,63.9,-99.9,29.89,East,80,0.0,0.0,-999,-99.99,,,-99.99,,2013-06-25 16:20:00,
2013-06-25 09:25:00,64.0,-99.9,29.89,East,94,10.9,15.3,-999,-99.99,,,-99.99,,2013-06-25 16:25:00,
2013-06-25 09:30:00,64.1,-99.9,29.89,West,271,0.0,13.5,-999,-99.99,,,-99.99,,2013-06-25 16:30:00,
2013-06-25 09:35:00,64.1,-99.9,29.90,SSE,163,8.4,10.9,-999,-99.99,,,-99.99,,2013-06-25 16:35:00,
2013-06-25 09:40:00,64.1,-99.9,29.90,SE,132,0.0,0.0,-999,-99.99,,,-99.99,,2013-06-25 16:40:00,
2013-06-25 09:45:00,64.1,-99.9,29.90,ESE,107,0.0,0.0,-999,-99.99,,,-99.99,,2013-06-25 16:45:00,
2013-06-25 09:50:00,64.3,-99.9,29.90,East,100,0.0,0.0,-999,-99.99,,,-99.99,,2013-06-25 16:50:00,
2013-06-25 09:55:00,64.4,-99.9,29.90,ESE,119,0.0,8.5,-999,-99.99,,,-99.99,,2013-06-25 16:55:00,
2013-06-25 10:00:00,64.5,-99.9,29.90,ESE,104,16.6,17.9,-999,-99.99,,,-99.99,,2013-06-25 17:00:00,
2013-06-25 10:05:00,64.6,-99.9,29.90,SE,129,0.0,8.9,-999,-99.99,,,-99.99,,2013-06-25 17:05:00,
2013-06-25 10:10:00,64.6,-99.9,29.90,ESE,122,0.0,12.7,-999,-99.99,,,-99.99,,2013-06-25 17:10:00,
2013-06-25 10:15:00,64.7,-99.9,29.90,SE,125,0.0,16.4,-999,-99.99,,,-99.99,,2013-06-25 17:15:00,
2013-06-25 10:20:00,64.7,-99.9,29.90,East,86,16.1,16.1,-999,-99.99,,,-99.99,,2013-06-25 17:20:00,
2013-06-25 10:25:00,64.6,-99.9,29.90,ESE,105,8.5,16.4,-999,-99.99,,,-99.99,,2013-06-25 17:25:00,
2013-06-25 10:30:00,64.6,-99.9,29.91,ESE,115,13.0,13.0,-999,-99.99,,,-99.99,,2013-06-25 17:30:00,
2013-06-25 10:35:00,64.8,-99.9,29.91,ESE,112,12.7,15.4,-999,-99.99,,,-99.99,,2013-06-25 17:35:00,
2013-06-25 10:40:00,64.9,-99.9,29.91,ESE,103,0.0,7.4,-999,-99.99,,,-99.99,,2013-06-25 17:40:00,
2013-06-25 10:45:00,65.1,-99.9,29.91,ESE,115,0.0,12.1,-999,-99.99,,,-99.99,,2013-06-25 17:45:00,
2013-06-25 10:50:00,65.0,-99.9,29.91,ESE,103,12.7,14.3,-999,-99.99,,,-99.99,,2013-06-25 17:50:00,
2013-06-25 10:55:00,64.9,-99.9,29.91,SE,125,0.0,0.0,-999,-99.99,,,-99.99,,2013-06-25 17:55:00,
2013-06-25 11:00:00,65.0,-99.9,29.91,SE,125,0.0,4.8,-999,-99.99,,,-99.99,,2013-06-25 18:00:00,
2013-06-25 11:05:00,65.0,-99.9,29.92,East,86,0.0,0.0,-999,-99.99,,,-99.99,,2013-06-25 18:05:00,
2013-06-25 11:10:00,65.0,-99.9,29.92,East,95,0.0,9.0,-999,-99.99,,,-99.99,,2013-06-25 18:10:00,
2013-06-25 11:15:00,65.0,-99.9,29.92,ESE,104,0.0,0.0,-999,-99.99,,,-99.99,,2013-06-25 18:15:00,
2013-06-25 11:20:00,65.0,-99.9,29.92,SSE,155,0.0,14.5,-999,-99.99,,,-99.99,,2013-06-25 18:20:00,
2013-06-25 11:25:00,65.0,-99.9,29.93,ESE,117,0.0,0.0,-999,-99.99,,,-99.99,,2013-06-25 18:25:00,
2013-06-25 11:30:00,65.0,-99.9,29.93,SE,132,8.9,8.9,-999,-99.99,,,-99.99,,2013-06-25 18:30:00,
2013-06-25 11:35:00,65.1,-99.9,29.93,East,87,0.0,0.0,-999,-99.99,,,-99.99,,2013-06-25 18:35:00,
2013-06-25 11:40:00,65.0,-99.9,29.93,East,87,0.0,0.0,-999,-99.99,,,-99.99,,2013-06-25 18:40:00,
2013-06-25 11:45:00,65.0,-99.9,29.93,East,87,0.0,0.0,-999,-99.99,,,-99.99,,2013-06-25 18:45:00,
2013-06-25 11:50:00,65.0,-99.9,29.93,East,87,0.0,0.0,-999,-99.99,,,-99.99,,2013-06-25 18:50:00,
2013-06-25 11:55:00,65.0,-99.9,29.93,East,87,0.0,0.0,-999,-99.99,,,-99.99,,2013-06-25 18:55:00,
2013-06-25 12:00:00,65.0,-99.9,29.93,SE,124,0.0,0.0,-999,-99.99,,,-99.99,,2013-06-25 19:00:00,
2013-06-25 12:05:00,65.0,-99.9,29.93,ESE,107,0.0,0.0,-999,-99.99,,,-99.99,,2013-06-25 19:05:00,
2013-06-25 12:10:00,65.2,-99.9,29.93,ESE,107,0.0,0.0,-999,-99.99,,,-99.99,,2013-06-25 19:10:00,
2013-06-25 12:15:00,65.2,-99.9,29.93,ESE,107,0.0,0.0,-999,-99.99,,,-99.99,,2013-06-25 19:15:00,
2013-06-25 12:20:00,65.2,-99.9,29.93,ESE,107,0.0,0.0,-999,-99.99,,,-99.99,,2013-06-25 19:20:00,
2013-06-25 12:30:00,65.4,-99.9,29.93,ESE,107,0.0,18.0,-999,-99.99,,,-99.99,,2013-06-25 19:30:00,
2013-06-25 12:35:00,65.4,-99.9,29.94,ESE,107,0.0,0.0,-999,-99.99,,,-99.99,,2013-06-25 19:35:00,
2013-06-25 12:40:00,65.5,-99.9,29.94,ESE,107,0.0,0.0,-999,-99.99,,,-99.99,,2013-06-25 19:40:00,
2013-06-25 12:45:00,65.5,-99.9,29.94,ESE,107,0.0,0.0,-999,-99.99,,,-99.99,,2013-06-25 19:45:00,
2013-06-25 12:50:00,65.5,-99.9,29.94,ESE,107,0.0,0.0,-999,-99.99,,,-99.99,,2013-06-25 19:50:00,
2013-06-25 12:55:00,65.6,-99.9,29.95,ESE,107,0.0,0.0,-999,-99.99,,,-99.99,,2013-06-25 19:55:00,
2013-06-25 13:00:00,65.6,-99.9,29.95,ESE,107,0.0,0.0,-999,-99.99,,,-99.99,,2013-06-25 20:00:00,
2013-06-25 13:10:00,65.7,-99.9,29.95,ESE,107,0.0,5.1,-999,-99.99,,,-99.99,,2013-06-25 20:10:00,
2013-06-25 13:15:00,65.7,-99.9,29.95,ESE,107,0.0,0.0,-999,-99.99,,,-99.99,,2013-06-25 20:15:00,
2013-06-25 13:20:00,65.8,-99.9,29.95,ESE,115,0.0,0.0,-999,-99.99,,,-99.99,,2013-06-25 20:20:00,
2013-06-25 13:25:00,65.7,-99.9,29.95,ESE,115,0.0,0.0,-999,-99.99,,,-99.99,,2013-06-25 20:25:00,
2013-06-25 13:30:00,65.7,-99.9,29.95,ESE,115,0.0,0.0,-999,-99.99,,,-99.99,,2013-06-25 20:30:00,
2013-06-25 13:35:00,65.7,-99.9,29.95,ESE,115,0.0,0.0,-999,-99.99,,,-99.99,,2013-06-25 20:35:00,
2013-06-25 13:40:00,65.7,-99.9,29.95,ESE,115,0.0,0.0,-999,-99.99,,,-99.99,,2013-06-25 20:40:00,
2013-06-25 13:45:00,65.7,-99.9,29.95,ESE,115,0.0,0.0,-999,-99.99,,,-99.99,,2013-06-25 20:45:00,
2013-06-25 13:50:00,65.7,-99.9,29.95,ESE,115,0.0,0.0,-999,-99.99,,,-99.99,,2013-06-25 20:50:00,
2013-06-25 14:00:00,65.7,-99.9,29.95,ESE,115,0.0,0.0,-999,-99.99,,,-99.99,,2013-06-25 21:00:00,
2013-06-25 14:10:00,65.6,-99.9,29.95,ESE,115,0.0,0.0,-999,-99.99,,,-99.99,,2013-06-25 21:10:00,
2013-06-25 14:15:00,65.6,-99.9,29.96,ESE,115,0.0,0.0,-999,-99.99,,,-99.99,,2013-06-25 21:15:00,
2013-06-25 14:20:00,65.6,-99.9,29.96,ESE,115,0.0,0.0,-999,-99.99,,,-99.99,,2013-06-25 21:20:00,
2013-06-25 14:30:00,65.5,-99.9,29.96,ESE,115,0.0,0.0,-999,-99.99,,,-99.99,,2013-06-25 21:30:00,
2013-06-25 14:35:00,65.5,-99.9,29.96,ESE,115,0.0,0.0,-999,-99.99,,,-99.99,,2013-06-25 21:35:00,
2013-06-25 14:40:00,65.6,-99.9,29.96,ESE,115,0.0,0.0,-999,-99.99,,,-99.99,,2013-06-25 21:40:00,
2013-06-25 14:45:00,65.5,-99.9,29.96,ESE,115,0.0,0.0,-999,-99.99,,,-99.99,,2013-06-25 21:45:00,
2013-06-25 14:50:00,65.4,-99.9,29.95,ESE,115,0.0,0.0,-999,-99.99,,,-99.99,,2013-06-25 21:50:00,
2013-06-25 14:55:00,65.6,-99.9,29.95,ESE,115,0.0,0.0,-999,-99.99,,,-99.99,,2013-06-25 21:55:00,
2013-06-25 15:00:00,65.5,-99.9,29.96,ESE,115,0.0,0.0,-999,-99.99,,,-99.99,,2013-06-25 22:00:00,
2013-06-25 15:05:00,65.4,-99.9,29.95,ESE,115,0.0,0.0,-999,-99.99,,,-99.99,,2013-06-25 22:05:00,
2013-06-25 15:10:00,65.5,-99.9,29.95,ESE,115,0.0,0.0,-999,-99.99,,,-99.99,,2013-06-25 22:10:00,
2013-06-25 15:15:00,65.6,-99.9,29.95,ESE,115,0.0,0.0,-999,-99.99,,,-99.99,,2013-06-25 22:15:00,
2013-06-25 15:20:00,65.6,-99.9,29.95,ESE,115,0.0,0.0,-999,-99.99,,,-99.99,,2013-06-25 22:20:00,
2013-06-25 15:25:00,65.6,-99.9,29.94,ESE,115,0.0,0.0,-999,-99.99,,,-99.99,,2013-06-25 22:25:00,
2013-06-25 15:30:00,65.6,-99.9,29.94,ESE,115,0.0,0.0,-999,-99.99,,,-99.99,,2013-06-25 22:30:00,
2013-06-25 15:35:00,65.6,-99.9,29.94,ESE,115,0.0,0.0,-999,-99.99,,,-99.99,,2013-06-25 22:35:00,
2013-06-25 15:40:00,65.7,-99.9,29.94,ESE,115,0.0,0.0,-999,-99.99,,,-99.99,,2013-06-25 22:40:00,
2013-06-25 15:45:00,65.8,-99.9,29.93,ESE,115,0.0,0.0,-999,-99.99,,,-99.99,,2013-06-25 22:45:00,
2013-06-25 15:50:00,66.0,-99.9,29.93,ESE,115,0.0,0.0,-999,-99.99,,,-99.99,,2013-06-25 22:50:00,
2013-06-25 15:55:00,66.2,-99.9,29.93,ESE,115,0.0,0.0,-999,-99.99,,,-99.99,,2013-06-25 22:55:00,
2013-06-25 16:00:00,66.6,-99.9,29.93,ESE,111,0.0,0.0,-999,-99.99,,,-99.99,,2013-06-25 23:00:00,
2013-06-25 16:05:00,66.7,-99.9,29.93,West,262,0.0,0.0,-999,-99.99,,,-99.99,,2013-06-25 23:05:00,
2013-06-25 16:10:00,67.0,-99.9,29.93,West,262,0.0,0.0,-999,-99.99,,,-99.99,,2013-06-25 23:10:00,
2013-06-25 16:15:00,67.1,-99.9,29.93,SSW,193,0.0,0.0,-999,-99.99,,,-99.99,,2013-06-25 23:15:00,
2013-06-25 16:20:00,67.5,-99.9,29.93,East,97,0.0,14.2,-999,-99.99,,,-99.99,,2013-06-25 23:20:00,
2013-06-25 16:25:00,67.8,-99.9,29.93,ESE,115,0.0,0.0,-999,-99.99,,,-99.99,,2013-06-25 23:25:00,
2013-06-25 16:30:00,67.8,-99.9,29.93,WSW,241,11.6,11.6,-999,-99.99,,,-99.99,,2013-06-25 23:30:00,
2013-06-25 16:35:00,67.9,-99.9,29.93,East,101,0.0,18.7,-999,-99.99,,,-99.99,,2013-06-25 23:35:00,
2013-06-25 16:40:00,68.1,-99.9,29.93,NNW,334,8.2,11.6,-999,-99.99,,,-99.99,,2013-06-25 23:40:00,
2013-06-25 16:45:00,68.1,-99.9,29.93,ESE,108,7.1,9.0,-999,-99.99,,,-99.99,,2013-06-25 23:45:00,
2013-06-25 16:50:00,68.2,-99.9,29.93,ENE,62,19.2,23.7,-999,-99.99,,,-99.99,,2013-06-25 23:50:00,
2013-06-25 16:55:00,68.0,-99.9,29.93,East,83,0.0,0.0,-999,-99.99,,,-99.99,,2013-06-25 23:55:00,
2013-06-25 17:00:00,67.8,-99.9,29.93,East,83,0.0,0.0,-999,-99.99,,,-99.99,,2013-06-26 00:00:00,
2013-06-25 17:05:00,67.9,-99.9,29.93,West,265,0.0,13.4,-999,-99.99,,,-99.99,,2013-06-26 00:05:00,
2013-06-25 17:10:00,67.7,-99.9,29.93,West,265,0.0,0.0,-999,-99.99,,,-99.99,,2013-06-26 00:10:00,
2013-06-25 17:15:00,67.7,-99.9,29.93,West,265,0.0,0.0,-999,-99.99,,,-99.99,,2013-06-26 00:15:00,
2013-06-25 17:20:00,67.8,-99.9,29.93,SW,224,0.0,13.8,-999,-99.99,,,-99.99,,2013-06-26 00:20:00,
2013-06-25 17:25:00,67.7,-99.9,29.93,SW,235,8.7,16.9,-999,-99.99,,,-99.99,,2013-06-26 00:25:00,
2013-06-25 17:30:00,67.8,-99.9,29.93,WSW,258,0.0,16.3,-999,-99.99,,,-99.99,,2013-06-26 00:30:00,
2013-06-25 17:35:00,67.9,-99.9,29.93,West,262,0.0,11.4,-999,-99.99,,,-99.99,,2013-06-26 00:35:00,
2013-06-25 17:40:00,67.8,-99.9,29.93,NNW,334,10.9,14.5,-999,-99.99,,,-99.99,,2013-06-26 00:40:00,
2013-06-25 17:45:00,67.8,-99.9,29.93,WSW,248,0.0,0.0,-999,-99.99,,,-99.99,,2013-06-26 00:45:00,
2013-06-25 17:50:00,67.9,-99.9,29.93,WNW,290,0.0,12.4,-999,-99.99,,,-99.99,,2013-06-26 00:50:00,
2013-06-25 17:55:00,67.8,-99.9,29.93,SW,230,0.0,0.0,-999,-99.99,,,-99.99,,2013-06-26 00:55:00,
2013-06-25 18:00:00,67.8,-99.9,29.93,West,279,0.0,0.0,-999,-99.99,,,-99.99,,2013-06-26 01:00:00,
2013-06-25 18:05:00,67.9,-99.9,29.93,West,262,0.0,8.9,-999,-99.99,,,-99.99,,2013-06-26 01:05:00,
2013-06-25 18:10:00,68.0,-99.9,29.93,SW,227,0.0,8.5,-999,-99.99,,,-99.99,,2013-06-26 01:10:00,
2013-06-25 18:15:00,67.9,-99.9,29.93,South,179,10.8,15.8,-999,-99.99,,,-99.99,,2013-06-26 01:15:00,
2013-06-25 18:20:00,67.8,-99.9,29.93,West,276,8.0,12.6,-999,-99.99,,,-99.99,,2013-06-26 01:20:00,
2013-06-25 18:25:00,68.0,-99.9,29.93,SW,231,0.0,0.0,-999,-99.99,,,-99.99,,2013-06-26 01:25:00,
2013-06-25 18:30:00,68.1,-99.9,29.93,WSW,258,8.9,15.3,-999,-99.99,,,-99.99,,2013-06-26 01:30:00,
2013-06-25 18:35:00,68.1,-99.9,29.93,West,259,0.0,0.0,-999,-99.99,,,-99.99,,2013-06-26 01:35:00,
2013-06-25 18:40:00,68.0,-99.9,29.93,West,268,13.5,14.8,-999,-99.99,,,-99.99,,2013-06-26 01:40:00,
2013-06-25 18:45:00,67.8,-99.9,29.93,West,276,11.1,14.2,-999,-99.99,,,-99.99,,2013-06-26 01:45:00,
2013-06-25 18:50:00,67.6,-99.9,29.93,WSW,256,0.0,13.7,-999,-99.99,,,-99.99,,2013-06-26 01:50:00,
2013-06-25 18:55:00,67.5,-99.9,29.93,WNW,303,0.0,8.9,-999,-99.99,,,-99.99,,2013-06-26 01:55:00,
2013-06-25 19:00:00,67.3,-99.9,29.93,WSW,239,0.0,7.6,-999,-99.99,,,-99.99,,2013-06-26 02:00:00,
2013-06-25 19:05:00,67.1,-99.9,29.93,West,269,0.0,8.7,-999,-99.99,,,-99.99,,2013-06-26 02:05:00,
2013-06-25 19:10:00,67.2,-99.9,29.93,WSW,248,4.7,17.4,-999,-99.99,,,-99.99,,2013-06-26 02:10:00,
2013-06-25 19:15:00,67.2,-99.9,29.93,WNW,286,0.0,17.2,-999,-99.99,,,-99.99,,2013-06-26 02:15:00,
2013-06-25 19:20:00,67.3,-99.9,29.93,North,359,5.5,8.4,-999,-99.99,,,-99.99,,2013-06-26 02:20:00,
2013-06-25 19:30:00,67.2,-99.9,29.93,WSW,248,0.0,15.8,-999,-99.99,,,-99.99,,2013-06-26 02:30:00,
2013-06-25 19:35:00,67.2,-99.9,29.93,West,276,0.0,11.7,-999,-99.99,,,-99.99,,2013-06-26 02:35:00,
2013-06-25 19:40:00,67.1,-99.9,29.93,WSW,255,0.0,0.0,-999,-99.99,,,-99.99,,2013-06-26 02:40:00,
2013-06-25 19:45:00,66.9,-99.9,29.93,SSW,213,0.0,6.3,-999,-99.99,,,-99.99,,2013-06-26 02:45:00,
2013-06-25 19:50:00,67.0,-99.9,29.93,SSW,213,0.0,0.0,-999,-99.99,,,-99.99,,2013-06-26 02:50:00,
2013-06-25 19:55:00,66.9,-99.9,29.93,SSW,213,0.0,6.4,-999,-99.99,,,-99.99,,2013-06-26 02:55:00,
2013-06-25 20:00:00,66.9,-99.9,29.93,SSW,213,0.0,0.0,-999,-99.99,,,-99.99,,2013-06-26 03:00:00,
2013-06-25 20:05:00,66.9,-99.9,29.93,SSW,213,0.0,0.0,-999,-99.99,,,-99.99,,2013-06-26 03:05:00,
2013-06-25 20:10:00,66.9,-99.9,29.93,SSW,213,0.0,0.0,-999,-99.99,,,-99.99,,2013-06-26 03:10:00,
2013-06-25 20:15:00,66.9,-99.9,29.93,SSW,213,0.0,0.0,-999,-99.99,,,-99.99,,2013-06-26 03:15:00,
2013-06-25 20:20:00,66.9,-99.9,29.93,SSW,213,0.0,0.0,-999,-99.99,,,-99.99,,2013-06-26 03:20:00,
2013-06-25 20:25:00,66.8,-99.9,29.93,SSW,213,0.0,0.0,-999,-99.99,,,-99.99,,2013-06-26 03:25:00,
2013-06-25 20:30:00,66.7,-99.9,29.93,SSW,213,0.0,0.0,-999,-99.99,,,-99.99,,2013-06-26 03:30:00,
2013-06-25 20:35:00,66.6,-99.9,29.93,SSW,213,0.0,0.0,-999,-99.99,,,-99.99,,2013-06-26 03:35:00,
2013-06-25 20:40:00,66.7,-99.9,29.93,SSW,213,0.0,0.0,-999,-99.99,,,-99.99,,2013-06-26 03:40:00,
2013-06-25 20:45:00,66.7,-99.9,29.93,SSW,213,0.0,0.0,-999,-99.99,,,-99.99,,2013-06-26 03:45:00,
2013-06-25 20:50:00,66.6,-99.9,29.93,SSW,213,0.0,0.0,-999,-99.99,,,-99.99,,2013-06-26 03:50:00,
2013-06-25 20:55:00,66.6,-99.9,29.93,SSW,213,0.0,0.0,-999,-99.99,,,-99.99,,2013-06-26 03:55:00,
2013-06-25 21:00:00,66.4,-99.9,29.93,SSW,213,0.0,0.0,-999,-99.99,,,-99.99,,2013-06-26 04:00:00,
2013-06-25 21:05:00,66.4,-99.9,29.93,SSW,213,0.0,0.0,-999,-99.99,,,-99.99,,2013-06-26 04:05:00,
2013-06-25 21:10:00,66.3,-99.9,29.93,SSW,213,0.0,0.0,-999,-99.99,,,-99.99,,2013-06-26 04:10:00,
2013-06-25 21:15:00,66.2,-99.9,29.93,SSW,213,0.0,0.0,-999,-99.99,,,-99.99,,2013-06-26 04:15:00,
2013-06-25 21:20:00,66.1,-99.9,29.93,WSW,255,0.0,0.0,-999,-99.99,,,-99.99,,2013-06-26 04:20:00,
2013-06-25 21:25:00,66.2,-99.9,29.93,WSW,255,0.0,0.0,-999,-99.99,,,-99.99,,2013-06-26 04:25:00,
2013-06-25 21:30:00,66.2,-99.9,29.94,WSW,255,0.0,0.0,-999,-99.99,,,-99.99,,2013-06-26 04:30:00,
2013-06-25 21:35:00,66.1,-99.9,29.94,WSW,255,0.0,0.0,-999,-99.99,,,-99.99,,2013-06-26 04:35:00,
2013-06-25 21:40:00,66.1,-99.9,29.94,WSW,255,0.0,0.0,-999,-99.99,,,-99.99,,2013-06-26 04:40:00,
2013-06-25 21:45:00,66.0,-99.9,29.94,WSW,255,0.0,0.0,-999,-99.99,,,-99.99,,2013-06-26 04:45:00,
2013-06-25 21:50:00,66.1,-99.9,29.94,WSW,255,0.0,0.0,-999,-99.99,,,-99.99,,2013-06-26 04:50:00,
2013-06-25 21:55:00,65.9,-99.9,29.94,SSW,208,0.0,0.0,-999,-99.99,,,-99.99,,2013-06-26 04:55:00,
2013-06-25 22:00:00,65.9,-99.9,29.94,SSW,208,0.0,0.0,-999,-99.99,,,-99.99,,2013-06-26 05:00:00,
2013-06-25 22:05:00,65.6,-99.9,29.94,SSW,208,0.0,0.0,-999,-99.99,,,-99.99,,2013-06-26 05:05:00,
2013-06-25 22:10:00,65.7,-99.9,29.94,SSW,208,0.0,0.0,-999,-99.99,,,-99.99,,2013-06-26 05:10:00,
2013-06-25 22:15:00,65.5,-99.9,29.94,SSW,208,0.0,0.0,-999,-99.99,,,-99.99,,2013-06-26 05:15:00,
2013-06-25 22:20:00,65.7,-99.9,29.94,SSW,208,0.0,0.0,-999,-99.99,,,-99.99,,2013-06-26 05:20:00,
2013-06-25 22:25:00,65.9,-99.9,29.94,SSW,208,0.0,0.0,-999,-99.99,,,-99.99,,2013-06-26 05:25:00,
2013-06-25 22:30:00,65.9,-99.9,29.94,SSW,208,0.0,0.0,-999,-99.99,,,-99.99,,2013-06-26 05:30:00,
2013-06-25 22:35:00,65.8,-99.9,29.94,SSW,208,0.0,0.0,-999,-99.99,,,-99.99,,2013-06-26 05:35:00,
2013-06-25 22:40:00,65.8,-99.9,29.94,SSW,208,0.0,0.0,-999,-99.99,,,-99.99,,2013-06-26 05:40:00,
2013-06-25 22:45:00,65.8,-99.9,29.94,SSW,208,0.0,0.0,-999,-99.99,,,-99.99,,2013-06-26 05:45:00,
2013-06-25 22:50:00,65.8,-99.9,29.94,SSW,208,0.0,0.0,-999,-99.99,,,-99.99,,2013-06-26 05:50:00,
2013-06-25 22:55:00,65.3,-99.9,29.94,SSW,208,0.0,0.0,-999,-99.99,,,-99.99,,2013-06-26 05:55:00,
2013-06-25 23:00:00,65.2,-99.9,29.94,SSW,208,0.0,0.0,-999,-99.99,,,-99.99,,2013-06-26 06:00:00,
2013-06-25 23:05:00,65.1,-99.9,29.93,SSW,208,0.0,0.0,-999,-99.99,,,-99.99,,2013-06-26 06:05:00,
2013-06-25 23:10:00,65.3,-99.9,29.93,SSW,208,0.0,0.0,-999,-99.99,,,-99.99,,2013-06-26 06:10:00,
2013-06-25 23:15:00,65.3,-99.9,29.93,SSW,208,0.0,0.0,-999,-99.99,,,-99.99,,2013-06-26 06:15:00,
2013-06-25 23:20:00,65.2,-99.9,29.93,SSW,208,0.0,0.0,-999,-99.99,,,-99.99,,2013-06-26 06:20:00,
2013-06-25 23:25:00,65.3,-99.9,29.93,SSW,208,0.0,0.0,-999,-99.99,,,-99.99,,2013-06-26 06:25:00,
2013-06-25 23:30:00,65.4,-99.9,29.93,SSW,208,0.0,0.0,-999,-99.99,,,-99.99,,2013-06-26 06:30:00,
2013-06-25 23:35:00,65.4,-99.9,29.93,SSW,208,0.0,0.0,-999,-99.99,,,-99.99,,2013-06-26 06:35:00,
2013-06-25 23:40:00,65.2,-99.9,29.93,SSW,208,0.0,0.0,-999,-99.99,,,-99.99,,2013-06-26 06:40:00,
2013-06-25 23:45:00,65.3,-99.9,29.93,SSW,208,0.0,0.0,-999,-99.99,,,-99.99,,2013-06-26 06:45:00,
2013-06-25 23:50:00,65.4,-99.9,29.93,SSW,208,0.0,0.0,-999,-99.99,,,-99.99,,2013-06-26 06:50:00,
2013-06-25 23:55:00,65.5,-99.9,29.94,SSW,208,0.0,0.0,-999,-99.99,,,-99.99,,2013-06-26 06:55:00,